Location: Unspecified
(29.9680°N, 0.0000°E)
Time: 11:13:00
(UTC+00:00)

Vanguard 1 Rocket - Pass Details

Date: 23 June 2019
Orbit: 651 x 4225 km, 34.3° (Epoch: 16 July)

Event Time Altitude Azimuth Distance (km) Brightness Sun altitude
Rises 21:16:27 0° 287° (WNW) 5,474 12.3 -23.4°
Reaches altitude 10° 21:20:50 10° 288° (WNW) 3,912 11.4 -24.0°
Maximum altitude 21:29:52 87° 16° (NNE) 1,015 7.5 -25.3°
Enters shadow 21:31:13 57° 104° (ESE) 1,092 7.4 -25.5°
